Overview Statistics Trail Chart Weather Telemetry Raw packets
 

This is the latest recevied weather packets stored in our database for station/object N7IGG. If no packets are shown the sender has not sent any weather packets the latest 10 day(s).

<< 26 27 28 29 30 31 32 >>
Time Temp. Humidity Pressure Rain* Wind** Luminosity Snow
1778004292 12.78° C 88% 1016.5 hPa 0 mm - 94 W/m² -
1778003989 13.33° C 88% 1016.6 hPa 0 mm - 99 W/m² -
1778003685 13.33° C 88% 1016.6 hPa 0 mm - 102 W/m² -
1778003382 13.33° C 88% 1016.7 hPa 0 mm - 98 W/m² -
1778003079 13.33° C 88% 1016.7 hPa 0 mm - 100 W/m² -
1778002775 13.33° C 88% 1016.6 hPa 0 mm - 99 W/m² -
1778002472 12.78° C 88% 1016.5 hPa 0 mm - 94 W/m² -
1778002169 12.78° C 88% 1016.5 hPa 0 mm - 91 W/m² -
1778001868 12.78° C 88% 1016.7 hPa 0 mm - 83 W/m² -
1778001566 12.78° C 88% 1016.5 hPa 0 mm - 87 W/m² -
1778001264 12.78° C 88% 1016.5 hPa 0 mm - 76 W/m² -
1778000960 12.78° C 88% 1016.6 hPa 0 mm - 67 W/m² -
1778000657 12.78° C 88% 1016.4 hPa 0 mm - 64 W/m² -
1778000352 13.33° C 88% 1016.5 hPa 0 mm - 60 W/m² -
1778000048 12.78° C 88% 1016.2 hPa 0 mm - 56 W/m² -
1777999744 12.78° C 88% 1016.3 hPa 0 mm - 50 W/m² -
1777999441 13.33° C 88% 1016.4 hPa 0 mm - 50 W/m² -
1777999139 12.78° C 88% 1016.4 hPa 0 mm - 50 W/m² -
1777998838 13.33° C 88% 1016.3 hPa 0 mm - 46 W/m² -
1777998536 13.33° C 88% 1016.5 hPa 0 mm - 44 W/m² -
1777998231 12.78° C 88% 1016.5 hPa 0 mm - 39 W/m² -
1777997929 12.78° C 88% 1016.4 hPa 0 mm - 39 W/m² -
1777997625 12.78° C 88% 1016.2 hPa 0 mm - 38 W/m² -
1777997323 13.33° C 88% 1016.3 hPa 0 mm - 39 W/m² -
1777997021 12.78° C 88% 1016.3 hPa 0 mm - 39 W/m² -

* Rain latest hour (hover to see other rain measurements)
** Current wind speed in m/s (hover to see current wind gust speed)